| time (UTC) | temp C | wind direction | speed KPH | gust KPH | rain 1hr cm | rain 24hr cm | rain mn cm | humidity % | barometer mb |
| 20260505063001 | 12 | 35 | 0.0 | 0.0 | 0.00 | 0.00 | 0.00 | 88 | 1009.9 |
| 20260505061607 | 12 | 1 | 0.0 | 4.8 | 0.00 | 0.00 | 0.00 | 87 | 1009.7 |
| 20260505060057 | 12 | 149 | 0.0 | 1.6 | 0.00 | 0.00 | 0.00 | 86 | 1009.6 |
| 20260505053102 | 13 | 243 | 0.0 | 1.6 | 0.00 | 0.00 | 0.00 | 84 | 1009.3 |
| 20260505051551 | 13 | 243 | 0.0 | 1.6 | 0.00 | 0.00 | 0.00 | 83 | 1009.2 |
| 20260505041549 | 15 | 75 | 0.0 | 0.0 | 0.00 | 0.00 | 0.00 | 78 | 1008.9 |
| 20260505040048 | 16 | 330 | 0.0 | 6.4 | 0.00 | 0.00 | 0.00 | 76 | 1008.7 |
| 20260505033106 | 17 | 320 | 0.0 | 6.4 | 0.00 | 0.00 | 0.00 | 71 | 1008.4 |
| 20260505031546 | 18 | 300 | 0.0 | 0.0 | 0.00 | 0.00 | 0.00 | 68 | 1008.3 |
| 20260505030045 | 19 | 266 | 0.0 | 1.6 | 0.00 | 0.00 | 0.00 | 65 | 1008.2 |
| 20260505023057 | 21 | 313 | 0.0 | 6.4 | 0.00 | 0.00 | 0.00 | 60 | 1008.0 |
| 20260505021546 | 21 | 110 | 0.0 | 0.0 | 0.00 | 0.00 | 0.00 | 59 | 1008.0 |
| 20260505020050 | 22 | 108 | 0.0 | 1.6 | 0.00 | 0.00 | 0.00 | 56 | 1008.0 |
| 20260505013051 | 23 | 167 | 0.0 | 0.0 | 0.00 | 0.00 | 0.00 | 51 | 1007.9 |
| 20260505011558 | 24 | 2 | 0.0 | 6.4 | 0.00 | 0.00 | 0.00 | 50 | 1008.0 |
| 20260505010052 | 25 | 19 | 0.0 | 3.2 | 0.00 | 0.00 | 0.00 | 48 | 1008.0 |
| 20260505003044 | 25 | 318 | 0.0 | 1.6 | 0.00 | 0.00 | 0.00 | 44 | 1008.0 |
| 20260505001545 | 25 | 249 | 0.0 | 1.6 | 0.00 | 0.00 | 0.00 | 47 | 1008.0 |
| 20260505000046 | 25 | 288 | 0.0 | 9.7 | 0.00 | 0.00 | 0.00 | 45 | 1008.1 |
| 20260504233041 | 25 | 105 | 0.0 | 8.0 | 0.00 | 0.00 | 0.00 | 46 | 1008.1 |
| 20260504231551 | 25 | 264 | 0.0 | 1.6 | 0.00 | 0.00 | 0.00 | 49 | 1008.1 |
| 20260504230040 | 25 | 250 | 0.0 | 6.4 | 0.00 | 0.00 | 0.00 | 48 | 1008.3 |
| 20260504223039 | 25 | 253 | 0.0 | 3.2 | 0.00 | 0.00 | 0.00 | 42 | 1008.7 |
| 20260504221538 | 25 | 249 | 0.0 | 4.8 | 0.00 | 0.00 | 0.00 | 45 | 1008.8 |
| 20260504220035 | 25 | 267 | 0.0 | 3.2 | 0.00 | 0.00 | 0.00 | 49 | 1008.9 |
| 20260504213032 | 24 | 231 | 0.0 | 1.6 | 0.00 | 0.00 | 0.00 | 45 | 1009.1 |
| 20260504211531 | 24 | 317 | 0.0 | 8.0 | 0.00 | 0.00 | 0.00 | 46 | 1009.2 |
| 20260504210031 | 23 | 260 | 0.0 | 11.3 | 0.00 | 0.00 | 0.00 | 52 | 1009.2 |
| 20260504203034 | 23 | 28 | 0.0 | 16.1 | 0.00 | 0.00 | 0.00 | 51 | 1009.3 |
| 20260504201533 | 23 | 78 | 0.0 | 9.7 | 0.00 | 0.00 | 0.00 | 50 | 1009.3 |
| 20260504200036 | 23 | 51 | 0.0 | 1.6 | 0.00 | 0.00 | 0.00 | 58 | 1009.2 |
| 20260504193027 | 22 | 197 | 0.0 | 6.4 | 0.00 | 0.00 | 0.00 | 58 | 1009.4 |
| 20260504191528 | 22 | 309 | 0.0 | 8.0 | 0.00 | 0.00 | 0.00 | 53 | 1009.6 |
| 20260504190030 | 22 | 240 | 0.0 | 3.2 | 0.00 | 0.00 | 0.00 | 55 | 1009.7 |
| 20260504183024 | 22 | 304 | 0.0 | 1.6 | 0.00 | 0.00 | 0.00 | 55 | 1009.5 |
| 20260504181520 | 22 | 276 | 0.0 | 1.6 | 0.00 | 0.00 | 0.00 | 57 | 1009.6 |
| 20260504180018 | 21 | 271 | 0.0 | 0.0 | 0.00 | 0.00 | 0.00 | 60 | 1009.6 |
| 20260504173017 | 21 | 206 | 0.0 | 1.6 | 0.00 | 0.00 | 0.00 | 59 | 1009.6 |
| 20260504171532 | 20 | 278 | 0.0 | 0.0 | 0.00 | 0.00 | 0.00 | 61 | 1009.6 |
| 20260504081538 | 16 | 104 | 0.0 | 0.0 | 0.00 | 0.00 | 0.00 | 51 | 1008.2 |